Change the Weather History Date:

Monday, October 8, 2012

  Actual Average (KFNT) Record (KFNT)
Temperature  
Mean Temperature 42 °F 52 °F  
Max Temperature 56 °F 63 °F 88 °F (2007)
Min Temperature 29 °F 42 °F 25 °F (2001)
Degree Days  
Heating Degree Days 22 13  
Month to date heating degree days 96  
Since 1 July heating degree days 306  
Cooling Degree Days 0 0  
Month to date cooling degree days 2  
Year to date cooling degree days 528  
Moisture  
Dew Point 30 °F    
Average Humidity 62    
Maximum Humidity 99    
Minimum Humidity 32    
Precipitation  
Precipitation 0.00 in 0.08 in 0.83 in (1922)
Month to date precipitation 0.74  
Year to date precipitation 25.05  
Snow  
Snow 0.00 in 0.00 in 0.00 in ()
Month to date snowfall 0.0  
Since 1 July snowfall 0.0  
Since 1 September snowfall 0.0  
Snow Depth -    
Sea Level Pressure  
Sea Level Pressure 30.13 in    
Wind  
Wind Speed 4 mph (SSW)    
Max Wind Speed 13 mph    
Max Gust Speed 20 mph    
Visibility 10 miles    
Events      
T = Trace of Precipitation, MM = Missing Value Source: NWS Daily Summary

Daily Weather History Graph

Daily Weather History Graph

Search for Another Location

Airport or City:

Trip Planner

Search our weather history database for the weather conditions in past years. The results will help you decide how hot, cold, wet, or windy it might be!

Date:

Astronomy

Oct. 08, 2012 Rise Set
Actual Time 7:42 AM EDT 7:04 PM EDT
Civil Twilight 7:14 AM EDT 7:33 PM EDT
Nautical Twilight 6:41 AM EDT 8:05 PM EDT
Astronomical Twilight 6:08 AM EDT 8:38 PM EDT
Moon 12:11 AM EDT (10/8) 3:02 PM EDT (10/8)
Length of Visible Light 12h 19m
Length of Day
11h 22m
Waning Gibbous, 46% of the Moon is Illuminated
Oct 8
Waning Gibbous
Oct 15
New
Oct 21
First Quarter
Oct 29
Full
Nov 6
Last Quarter

Hourly Weather History & Observations

Time (EDT) Temp. Windchill Dew Point Humidity Pressure Visibility Wind Dir Wind Speed Gust Speed Precip Events Conditions
12:15 AM 35.8 °F - 35.1 °F 97% 30.14 in 10.0 mi Calm Calm - N/A   Scattered Clouds
12:35 AM 36.9 °F - 36.5 °F 99% 30.13 in 10.0 mi Calm Calm - N/A   Mostly Cloudy
12:55 AM 37.4 °F - 36.5 °F 97% 30.13 in 10.0 mi Calm Calm - N/A   Mostly Cloudy
1:15 AM 36.5 °F - 35.6 °F 97% 30.13 in 10.0 mi Calm Calm - N/A   Scattered Clouds
1:35 AM 36.1 °F - 34.7 °F 94% 30.13 in 10.0 mi Calm Calm - N/A   Clear
1:55 AM 34.9 °F - 32.7 °F 92% 30.14 in 10.0 mi Calm Calm - N/A   Clear
2:15 AM 34.2 °F - 32.9 °F 95% 30.14 in 10.0 mi Calm Calm - N/A   Clear
2:35 AM 34.2 °F - 32.9 °F 95% 30.14 in 10.0 mi Calm Calm - N/A   Clear
2:55 AM 33.4 °F - 32.2 °F 95% 30.14 in 10.0 mi Calm Calm - N/A   Clear
3:15 AM 34.3 °F - 33.4 °F 97% 30.14 in 10.0 mi Calm Calm - N/A   Clear
3:35 AM 31.1 °F - 30.2 °F 96% 30.14 in 10.0 mi Calm Calm - N/A   Clear
3:55 AM 29.8 °F 24.9 °F 29.7 °F 99% 30.14 in 10.0 mi South 4.6 mph - N/A   Clear
4:15 AM 32.5 °F 29.3 °F 32.4 °F 99% 30.14 in 10.0 mi SSW 3.5 mph - N/A   Clear
4:35 AM 33.3 °F 30.2 °F 32.2 °F 96% 30.14 in 10.0 mi South 3.5 mph - N/A   Clear
4:55 AM 33.8 °F - 32.0 °F 93% 30.14 in 10.0 mi Calm Calm - N/A   Clear
5:16 AM 34.0 °F 31.0 °F 32.0 °F 92% 30.14 in 10.0 mi South 3.5 mph - N/A   Clear
5:35 AM 33.8 °F 30.8 °F 31.5 °F 91% 30.14 in 10.0 mi SSW 3.5 mph - N/A   Clear
5:55 AM 34.2 °F 31.2 °F 31.6 °F 90% 30.14 in 10.0 mi SSW 3.5 mph - N/A   Clear
6:15 AM 34.9 °F 32.0 °F 32.0 °F 89% 30.14 in 10.0 mi South 3.5 mph - N/A   Clear
6:35 AM 35.1 °F 32.2 °F 32.0 °F 89% 30.14 in 10.0 mi South 3.5 mph - N/A   Clear
6:55 AM 35.6 °F 31.7 °F 32.0 °F 87% 30.15 in 10.0 mi South 4.6 mph - N/A   Scattered Clouds
7:15 AM 36.1 °F 33.5 °F 32.0 °F 85% 30.16 in 10.0 mi South 3.5 mph - N/A   Mostly Cloudy
7:35 AM 37.0 °F 33.3 °F 32.0 °F 82% 30.16 in 10.0 mi South 4.6 mph - N/A   Overcast
7:55 AM 37.8 °F 32.5 °F 32.0 °F 80% 30.16 in 10.0 mi South 6.9 mph - N/A   Overcast
8:15 AM 38.3 °F 31.9 °F 32.4 °F 79% 30.17 in 10.0 mi South 9.2 mph - N/A   Overcast
8:35 AM 37.9 °F 32.7 °F 32.5 °F 81% 30.17 in 10.0 mi SSW 6.9 mph - N/A   Mostly Cloudy
8:55 AM 38.7 °F 34.3 °F 32.4 °F 78% 30.17 in 10.0 mi SSW 5.8 mph - N/A   Scattered Clouds
9:15 AM 40.6 °F 36.0 °F 32.4 °F 72% 30.17 in 10.0 mi SSW 6.9 mph - N/A   Clear
9:35 AM 42.4 °F 37.5 °F 32.2 °F 67% 30.18 in 10.0 mi SSW 8.1 mph - N/A   Clear
9:55 AM 44.1 °F 39.0 °F 31.3 °F 61% 30.18 in 10.0 mi SW 9.2 mph - N/A   Clear
10:15 AM 45.7 °F 41.0 °F 30.6 °F 56% 30.17 in 10.0 mi SW 9.2 mph - N/A   Clear
10:36 AM 47.3 °F - 29.7 °F 50% 30.17 in 10.0 mi SSW 9.2 mph - N/A   Clear
10:55 AM 48.9 °F - 29.8 °F 48% 30.17 in 10.0 mi SSW 9.2 mph - N/A   Clear
11:15 AM 50.4 °F - 29.1 °F 44% 30.17 in 10.0 mi SSW 9.2 mph - N/A   Clear
11:35 AM 51.4 °F - 28.4 °F 41% 30.16 in 10.0 mi South 10.4 mph - N/A   Clear
11:55 AM 52.3 °F - 27.3 °F 38% 30.16 in 10.0 mi SSW 10.4 mph 17.3 mph N/A   Clear
12:15 PM 53.4 °F - 27.3 °F 37% 30.16 in 10.0 mi South 10.4 mph - N/A   Clear
12:35 PM 53.6 °F - 26.4 °F 35% 30.16 in 10.0 mi South 11.5 mph 19.6 mph N/A   Clear
12:55 PM 54.9 °F - 27.3 °F 35% 30.16 in 10.0 mi South 11.5 mph - N/A   Scattered Clouds
1:15 PM 54.9 °F - 26.6 °F 34% 30.15 in 10.0 mi South 9.2 mph 17.3 mph N/A   Scattered Clouds
1:35 PM 54.9 °F - 26.2 °F 33% 30.15 in 10.0 mi SW 9.2 mph 16.1 mph N/A   Scattered Clouds
1:55 PM 55.6 °F - 26.8 °F 33% 30.14 in 10.0 mi SW 9.2 mph - N/A   Clear
2:15 PM 55.6 °F - 26.8 °F 33% 30.13 in 10.0 mi South 10.4 mph 17.3 mph N/A   Scattered Clouds
2:35 PM 54.9 °F - 27.0 °F 34% 30.12 in 10.0 mi SSW 10.4 mph - N/A   Scattered Clouds
2:55 PM 54.7 °F - 26.8 °F 34% 30.12 in 10.0 mi South 12.7 mph 17.3 mph N/A   Scattered Clouds
3:16 PM 55.6 °F - 26.8 °F 33% 30.11 in 10.0 mi SSW 8.1 mph 18.4 mph N/A   Clear
3:35 PM 55.6 °F - 26.8 °F 33% 30.10 in 10.0 mi SW 8.1 mph - N/A   Clear
3:55 PM 55.4 °F - 26.1 °F 32% 30.09 in 10.0 mi SSW 10.4 mph 16.1 mph N/A   Clear
4:15 PM 56.1 °F - 26.8 °F 32% 30.09 in 10.0 mi SW 11.5 mph - N/A   Clear
4:35 PM 55.8 °F - 25.9 °F 32% 30.09 in 10.0 mi SW 10.4 mph - N/A   Clear
4:55 PM 55.8 °F - 26.2 °F 32% 30.08 in 10.0 mi SSW 11.5 mph 16.1 mph N/A   Clear
5:15 PM 55.6 °F - 25.9 °F 32% 30.08 in 10.0 mi SW 8.1 mph - N/A   Clear
5:35 PM 55.4 °F - 25.7 °F 32% 30.08 in 10.0 mi South 11.5 mph - N/A   Clear
5:55 PM 54.7 °F - 25.2 °F 32% 30.07 in 10.0 mi SSW 9.2 mph - N/A   Clear
6:15 PM 54.3 °F - 25.5 °F 33% 30.07 in 10.0 mi South 6.9 mph - N/A   Clear
6:35 PM 53.6 °F - 25.7 °F 34% 30.07 in 10.0 mi South 6.9 mph - N/A   Clear
6:55 PM 52.2 °F - 25.3 °F 35% 30.07 in 10.0 mi South 5.8 mph - N/A   Clear
7:15 PM 50.5 °F - 26.4 °F 39% 30.07 in 10.0 mi South 4.6 mph - N/A   Clear
7:35 PM 48.6 °F - 27.1 °F 43% 30.07 in 10.0 mi Calm Calm - N/A   Clear
7:56 PM 47.5 °F - 27.5 °F 46% 30.08 in 10.0 mi Calm Calm - N/A   Clear
8:15 PM 43.7 °F - 29.7 °F 58% 30.08 in 10.0 mi Calm Calm - N/A   Clear
8:35 PM 42.3 °F - 30.6 °F 63% 30.09 in 10.0 mi Calm Calm - N/A   Clear
8:55 PM 41.2 °F 39.2 °F 30.6 °F 66% 30.09 in 10.0 mi SSE 3.5 mph - N/A   Clear
9:15 PM 43.9 °F 41.3 °F 28.6 °F 55% 30.09 in 10.0 mi SSE 4.6 mph - N/A   Clear
9:35 PM 43.9 °F 42.3 °F 28.4 °F 55% 30.09 in 10.0 mi SSE 3.5 mph - N/A   Clear
9:55 PM 43.2 °F 40.5 °F 28.4 °F 56% 30.09 in 10.0 mi SSE 4.6 mph - N/A   Clear
10:15 PM 43.2 °F 40.5 °F 28.4 °F 56% 30.09 in 10.0 mi SSE 4.6 mph - N/A   Clear
10:35 PM 43.2 °F 40.5 °F 29.3 °F 58% 30.09 in 10.0 mi SSE 4.6 mph - N/A   Clear
10:55 PM 43.2 °F 40.5 °F 29.3 °F 58% 30.09 in 10.0 mi South 4.6 mph - N/A   Clear
11:15 PM 43.0 °F 39.5 °F 29.7 °F 59% 30.09 in 10.0 mi South 5.8 mph - N/A   Clear
11:55 PM 42.8 °F 40.1 °F 29.3 °F 59% 30.09 in 10.0 mi South 4.6 mph - N/A   Clear